User: anonymous   Login
Location: Unspecified
(0.0000°N, 0.0000°E)
Time: 10:16:18
(UTC+00:00)
Language:

COSMOS 2489 - Orbit

View from above orbital plane
View from above orbital plane
View from above satellite
View from above satellite

Ground track
Ground track

The orbit data is extracted from the following two-line orbital elements,

1 39484U 13076B   17080.88577831 +.00000010 +00000-0 +00000-0 0  9999
2 39484 082.4856 111.9255 0020686 250.1002 109.7852 12.42875640146977
Epoch (UTC): 21 March 2017 21:15:31
Eccentricity: 0.0020686
inclination: 82.4856°
perigee height: 1478 km
apogee height: 1511 km
right ascension of ascending node: 111.9255°
argument of perigee: 250.1002°
revolutions per day: 12.42875640
mean anomaly at epoch: 109.7852°
orbit number at epoch: 14697

The dashed part of the orbit path shows where the satellite is in the earth's shadow,  

DLR